Printer-friendly version

IAU Minor Planet Center

Minor Planet Center

MPEC 2001-N26: 2000 JG5

The following Minor Planet Electronic Circular may be linked-to from your own Web pages, but must not otherwise be redistributed electronically.


Read MPEC 2001-N25 Read MPEC 2001-N27


M.P.E.C. 2001-N26                                Issued 2001 July 12, 16:07 UT

     The Minor Planet Electronic Circulars contain information on unusual
         minor planets and routine data on comets.  They are published
   on behalf of Commission 20 of the International Astronomical Union by the
          Minor Planet Center, Smithsonian Astrophysical Observatory,
                          Cambridge, MA 02138, U.S.A.

             Prepared using the Tamkin Foundation Computer Network

                              MPC@CFA.HARVARD.EDU
          URL http://cfa-www.harvard.edu/iau/mpc.html  ISSN 1523-6714

                                   2000 JG5

                           Revision to MPEC 2000-J25

Observations:
     K00J05G  C2001 07 11.19282 20 33 58.39 +54 07 52.9          20.7 R      649
     K00J05G  C2001 07 11.19799 20 33 57.35 +54 08 09.1          20.4 R      649
     K00J05G  C2001 07 11.20830 20 33 55.45 +54 08 38.2          19.7 R      649
     K00J05G  C2001 07 12.25966 20 31 07.61 +54 58 28.4          19.6 R      649
     K00J05G  C2001 07 12.26743 20 31 06.35 +54 58 50.8          19.9 R      649
     K00J05G  C2001 07 12.27391 20 31 05.07 +54 59 09.2          19.9 R      649

Observer details:
649 Powell Observatory, Louisburg.  Observer K. Smalley.  0.75-m Newtonian
    + CCD.

First and last observations above in comparison with prediction:
Residuals in seconds of arc (or two decimals in degrees), reference and Delta-T
010711 649 0.08- 0.06-    010712 649 0.08- 0.06-    MPO  1639   +0.11 day

Orbital elements:
2000 JG5                                                             PHA 0.026
Epoch 2001 Apr. 1.0 TT = JDT 2452000.5                  Williams
M 246.82971              (2000.0)            P               Q
n   0.63494219     Peri.  233.20172     +0.12538184     -0.94961831
a   1.3406434      Node   213.33103     +0.99176110     +0.11230813
e   0.7955702      Incl.   31.51661     -0.02625489     -0.29259521
P   1.55           H   18.3           G   0.15           U   4
Residuals in seconds of arc
000502 704  0.1-  0.6+    000504 670  0.2+  0.4-    000506 649  0.0   0.0
000502 704  0.0   0.7+    000504 670  0.4-  0.6-    000506 649  0.2+  0.1+
000502 704  0.4+  0.8+    000504 670  0.1-  0.6-    000506 649  0.2+  0.0
000503 118  0.2-  0.2+    000504 900  0.2-  0.2-    000506 649  0.0   0.2-
000503 118  0.2-  0.2+    000504 900  0.6-  0.2-    000506 649  0.2+  0.0
000503 118  0.2-  0.1+    000504 350  1.4+  0.7-    000506 850  0.3+  0.0
000503 557  0.2-  0.4-    000504 350  0.7+  0.4-    000506 850  0.2-  0.2+
000503 557  0.1-  0.1-    000504 350  0.3-  0.9-    000506 850  1.0+  0.4-
000503 557  0.2-  0.4-    000504 349 (2.3-  0.6-)   000506 850  0.3-  0.1-
000503 865  0.1-  0.3-    000504 349 (2.6-  0.8-)   000506 704  0.2+  0.1+
000503 865  0.1-  0.3-    000504 349 (2.4-  0.1-)   000506 850  0.1-  0.2+
000503 865  0.3-  0.3-    000504 349  1.8-  0.3-    000506 704  0.5+  0.1+
000503 865  0.5-  0.5-    000504 349 (2.1-  0.1+)   000506 850  0.2+  0.1+
000503 865  0.9-  0.6-    000504 557  0.2-  0.3-    000506 704  0.2+  0.0
000503 704  0.1+  0.4+    000504 557  0.3-  0.2-    000506 704  0.2-  0.1+
000503 704  0.1+  0.5+    000504 611  0.2+  0.0     000506 704  0.3-  0.0
000503 704  0.1+  0.1+    000504 611  0.2+  0.0     000506 113  0.4-  1.1+
000503 704  0.0   0.4+    000504 611  0.1-  0.3-    000506 113  0.5-  1.5+
000503 704  0.1+  0.1-    000504 611  0.2+  0.3-    000506 113  0.5-  1.6+
000503 704  0.1-  0.5+    000504 121  0.4+  0.7-    000507 113  0.4-  1.4+
000503 704  0.2+  0.1+    000504 121  0.5+  0.6-    000507 113  0.6-  1.5+
000503 704  0.0   0.4+    000504 557  0.5-  0.3-    000507 113  0.4-  1.5+
000503 704  0.1+  0.2-    000504 121  0.1+  0.8-    000507 113  0.4-  1.5+
000503 704  0.2-  0.4+    000505 121  0.1-  0.2-    000507 113  0.4-  1.5+
000503 348  0.1-  0.2-    000505 121  0.5-  0.4-    000507 113  0.6-  1.9+
000503 348  0.3+  0.3-    000505 557  0.4-  0.0     000507 113  0.5-  1.4+
000503 900  0.5-  0.2-    000505 557  0.1+  0.3-    000508 360  0.0   0.4-
000503 900  0.3-  0.1-    000505 739  0.2-  0.5-    000508 360  0.0   0.1-
000503 046  0.1-  0.1+    000505 739  0.1-  0.2-    000508 360  0.1-  0.3-
000503 046  0.2-  0.2+    000505 739  0.3-  0.1-    000508 402  0.1-  0.4-
000503 046  0.1-  0.1+    000505 649  0.8-  0.2+    000508 402  0.8+  0.2+
000503 046  0.1-  0.1+    000505 649  2.0-  0.3+    000508 402  0.0   0.0
000503 118  0.1+  0.4+    000505 649  1.3-  0.2+    000509 557  0.1+  0.2-
000503 118  0.1+  0.3+    000505 704  0.1-  0.1+    000509 557  0.8+  0.5-
000503 595  0.2+  0.5-    000505 704  0.7+  0.4+    000509 557  0.1+  0.3-
000503 118  0.1+  0.3+    000505 858  0.2-  0.1+    000510 557  0.3-  0.5-
000503 595  0.5+  0.4-    000505 704  0.1-  0.1+    000510 557  0.4-  1.2-
000503 595  0.4+  0.2-    000505 858  0.1+  0.1+    000510 557  0.4-  0.0
000503 595  0.5+  0.7-    000505 704  0.9+  0.3+    000510 557  0.4+  0.1-
000503 557  0.4-  0.3-    000505 858  1.4+  1.2+    000510 557  1.0-  0.0
000503 557  0.3-  0.0     000505 704  0.1+  0.1+    000510 557  0.0   0.2-
000503 113  1.0+  0.1+    000505 704  0.6+  0.1+    000510 151  1.8-  0.7+
000503 113  0.9+  0.2-    000505 704  0.0   0.3+    000510 151  0.7+  1.1+
000503 121  0.5-  0.4-    000505 704  0.7+  0.1+    000510 557  0.3-  0.1-
000503 113  1.2+  0.2-    000505 704  0.1-  0.3+    000510 151  0.8-  0.2+
000503 113  1.0+  0.1+    000505 704  0.5+  0.3+    000510 151  1.8-  1.3+
000503 113  1.1+  0.1-    000505 121  0.5-  0.3-    000510 151  0.8-  0.7+
000503 113  1.0+  0.4-    000505 121  0.9-  0.4-    000510 151 (1.0-  2.3-)
000504 113  1.2+  0.2-    000505 121  0.3-  0.0     000511 118  0.0   0.5+
000504 113  1.3+  0.1-    000505 121  0.1-  0.2-    000511 118  0.5+  0.0
000504 113  1.7+  0.2-    000505 121  0.3-  0.1-    000511 118  0.3-  0.4-
000504 121  0.5-  0.5-    000505 611  0.0   0.3+    000512 670  0.2+  0.8-
000504 121  0.4-  0.7-    000505 611  0.2-  0.1+    000512 670  0.1-  0.4-
000504 557  0.3-  0.4-    000505 611  0.1+  0.2+    000513 658  1.9+  0.8+
000504 557  0.4-  0.5-    000505 611  0.3-  0.4+    000513 658  0.2+  0.1+
000504 865  0.8-  0.7-    000505 118  0.1-  0.1+    000513 658  0.5-  0.1+
000504 865  0.8-  0.8-    000505 118  0.3-  0.2+    000513 046  0.6+  0.8-
000504 865  0.6-  1.1-    000505 118  0.1-  0.2+    000513 046  0.4+  0.5-
000504 739  0.4-  0.6-    000506 620 (2.3+  0.7-)   000513 046  0.2+  0.8-
000504 739  0.5-  0.4-    000506 620  0.1+  0.2+    000513 046  0.0   0.5-
000504 739  0.4+  0.9-    000506 620  0.4+  0.2-    000513 046  0.8+  0.5-
000504 865  0.2-  1.1-    000506 113  0.4+  0.3+    000513 118  0.7+  0.3-
000504 739  0.0   0.9-    000506 113  0.4+  0.3+    000513 118  0.1-  0.2+
000504 865  0.3-  1.1-    000506 113  0.2+  0.2+    000513 118  0.4+  0.4+
000504 713  0.4-  0.4-    000506 113  0.2+  0.3+    000514 118  0.4-  0.4+
000504 704  0.1-  0.0     000506 113  0.3+  0.1+    000514 118  0.2-  0.5+
000504 713  0.5-  0.2-    000506 113  0.4+  0.2+    000514 118  0.9+  0.2-
000504 704  0.6+  0.4+    000506 620  0.6-  0.6+    000522 587  0.6-  0.7-
000504 704  0.0   0.1+    000506 113  0.1+  0.2+    000522 587  0.0   1.2-
000504 704  0.0   0.3+    000506 113  0.4+  0.2+    000603 557  0.4-  0.9-
000504 704  0.2+  0.1+    000506 113  0.4+  0.2+    000603 557  0.0   1.0-
000504 713  0.2+  0.1+    000506 113  0.4+  0.3+    000616 658  0.2+  0.2+
000504 704  0.2+  0.4+    000506 713  0.2-  1.3+    000616 658  0.6+  0.2-
000504 704  0.0   0.1+    000506 739  0.1-  0.2-    000616 658  0.7-  0.0
000504 704  0.2+  1.1+    000506 739  1.0+  0.0     010711 649  1.4+  0.7-
000504 651  0.3-  0.7-    000506 739  0.7+  0.0     010711 649  0.6-  0.7+
000504 651  0.3-  0.7-    000506 739  0.5+  0.1-    010711 649 (3.0-  0.3+)
000504 651  0.2-  0.7-    000506 713  0.1+  1.0+    010712 649  0.2-  0.1-
000504 704  0.3-  0.1+    000506 713  0.9-  1.0+    010712 649  0.4+  0.0
000504 704 (0.1-  3.4+)   000506 850  0.0   0.2+    010712 649  1.0-  0.1-
000504 713  0.5+  0.1+    000506 649  0.0   0.1+

Ephemeris:
2000 JG5                 a,e,i = 1.34, 0.80, 32                  q = 0.2741
Date    TT    R. A. (2000) Decl.     Delta      r     Elong.  Phase     V
2001 07 10    20 36.87   +53 11.8    0.815    1.435   102.6    43.7    20.3
2001 07 15    20 22.70   +57 09.8    0.762    1.379   100.7    46.4    20.2
2001 07 20    20 01.94   +61 12.9    0.712    1.320    98.1    49.6    20.0
2001 07 25    19 31.12   +65 11.8    0.666    1.259    94.7    53.5    19.9
2001 07 30    18 44.80   +68 47.6    0.624    1.195    90.3    58.2    19.8
2001 08 04    17 36.7    +71 22.4    0.586    1.127    85.1    63.7    19.7
2001 08 09    16 08.0    +71 55.9    0.553    1.057    78.9    70.3    19.6
2001 08 14    14 37.94   +69 38.7    0.525    0.983    71.6    78.0    19.6
2001 08 19    13 26.48   +64 36.6    0.504    0.905    63.2    87.0    19.7

Gareth V. Williams           (C) Copyright 2001 MPC           M.P.E.C. 2001-N26

Read MPEC 2001-N25 Read MPEC 2001-N27


Our Web policy. Index to the CBAT/MPC/ICQ pages.


Valid HTML 4.01!